BRISAT

Last updated on Sat Oct 18 2025 00:02:54 GMT+0000 (Coordinated Universal Time)

1 41591U 16039A 25289.32961632 -.00000210 00000+0 00000+0 0 9999 2 41591 0.0204 240.8335 0002054 342.5546 70.8647 1.00267520 34162
UTC large
Height (km)
Speed (km/s)
/
Latitude / Longitude
Inclination (degrees)
Orbital Period (minutes)
Azimuth
Elevation
Range (km)
Doppler Factor

Next 0 passes for location: London (51.5072 / 0.1276)

Sorry there are no passes over London.